[[{"header":{"parameterUnit":"m.s-1","parameterCategory":1,"la1":30.2991,"la2":30.254,"lo1":-89.0895,"lo2":-89.0444,"dy":0.0017,"dx":0.0017,"nx":28,"ny":28,"refTime":"2023-11-05T09:00:00:Z","depth":0,"parameterNumber":2,"parameterNumberName":"U-component_of_WINDS"},"data":[0,0,0,0,0,0,0,0,0,0,0,0,0,0,0,0,0,0,0,0,0,0,0,0,0,0,0,0,0,0,0,0,0,0,0,0,0,0,0,0,0,0,0,0,0,0,0,0,0,0,0,0,0,0,0,0,0,0,0.8386,0.8385,0,0.8289,0.8288,0.8287,0.818,0.8179,0.8177,0.8176,0.8077,0.8076,0.8075,0,0,0,0,0,0,0,0,0,0,0,0,0,0.8478,0.8477,0.8386,0.8385,0.8384,0.8289,0.8288,0.8287,0.8181,0.8179,0.8177,0.8175,0.8078,0.8076,0.8075,0,0,0,0,0,0,0,0,0,0,0,0,0,0.8416,0.8477,0.8386,0.8319,0.8312,0.8289,0.8288,0.8286,0.8181,0.8179,0.8176,0.8174,0.8078,0.8076,0.8075,0.811,0,0,0.8069,0.8068,0,0,0,0,0,0,0,0,0.8419,0.8412,0.833,0.8324,0.8316,0.8244,0.8284,0.8227,0.8181,0.8231,0.8176,0.8173,0.8135,0.8128,0.8115,0.8106,0.8101,0.8069,0.8068,0.8067,0.8067,0,0,0,0,0,0,0,0.8424,0.8416,0.8348,0.8329,0.832,0.8294,0.8282,0.8273,0.8197,0.8226,0.8218,0.8208,0.813,0.8117,0.8112,0.81,0.8069,0.8068,0.8066,0.8066,0.8113,0.8115,0,0,0,0,0,0,0.8438,0.842,0.8351,0.8345,0.8363,0.8294,0.8281,0.827,0.8197,0.8183,0.821,0.8204,0.8121,0.8114,0.8108,0.8144,0.8067,0.8066,0.8065,0.811,0.8113,0.8116,0,0,0,0,0,0,0.8441,0.8433,0.8355,0.838,0.8368,0.8295,0.8283,0.8269,0.8256,0.8185,0.8171,0.8211,0.8119,0.8111,0.811,0.8139,0.8065,0.8063,0.8108,0.8111,0.8115,0.8218,0,0,0,0,0,0,0.8444,0.8435,0.8448,0.8381,0.8367,0.8359,0.8285,0.8269,0.8253,0.8243,0.8181,0.8169,0.8117,0.8113,0.8108,0.8136,0.8062,0.8105,0.8109,0.8113,0.8211,0.8224,0.8235,0,0,0,0,0,0.8448,0.8481,0.8449,0.8441,0.8382,0.8361,0.8353,0.8292,0.8256,0.8268,0.8222,0.8171,0.8137,0.8114,0.8108,0.8135,0.8103,0.8108,0.8113,0.8206,0.8222,0.8235,0,0,0,0,0,0,0.8554,0.8471,0.8435,0.8448,0.8412,0.8343,0.8357,0.831,0.8284,0.8276,0.8201,0.8188,0.8197,0.8165,0.8142,0.8164,0.8112,0.8116,0.8185,0.8199,0.8211,0.8219,0.806,0,0,0,0,0,0.8579,0.8568,0.8496,0.8515,0.8499,0.8431,0.8419,0.8375,0.8335,0.832,0.8274,0.8237,0.8217,0.8206,0.8185,0.8205,0.819,0.8221,0.8233,0.8243,0.8248,0.8256,0.8268,0.8133,0.8133,0.8133,0,0,0.863,0.8584,0.8582,0.8535,0.8502,0.8493,0.8419,0.8413,0.8405,0.8318,0.8315,0.828,0.8234,0.8244,0.8246,0.8218,0.8281,0.825,0.8258,0.8257,0.8262,0.8275,0.8287,0.8136,0.8136,0.8135,0,0,0.872,0.8683,0.8694,0.8662,0.8613,0.8567,0.857,0.8507,0.848,0.8475,0.841,0.8399,0.8368,0.8337,0.8318,0.8393,0.8345,0.8388,0.8451,0.8459,0.847,0.8479,0.8506,0.8516,0.8393,0.8393,0.8393,0,0.879,0.8773,0.8706,0.8703,0.8684,0.8604,0.8615,0.8587,0.8533,0.8522,0.8491,0.8449,0.8412,0.8413,0.8432,0.8418,0.8419,0.8395,0.8474,0.8482,0.849,0.8515,0.8525,0.8398,0.8398,0.8397,0.8397,0,0.8862,0.8851,0.8866,0.8816,0.8798,0.8802,0.8735,0.8725,0.8682,0.8639,0.8635,0.8587,0.8554,0.8551,0.8509,0.8546,0.853,0.8488,0.8434,0.8509,0.8531,0.854,0.8406,0.8404,0.8403,0.8401,0,0,0.9018,0.8928,0.8935,0.8911,0.8849,0.8839,0.8839,0.8806,0.8799,0.8764,0.8761,0.8735,0.8695,0.8673,0.8626,0.8634,0.8696,0.859,0.8588,0.8612,0.8733,0.8767,0.8779,0.8663,0.8665,0.8666,0.8737,0,0.9097,0.9091,0.903,0.9042,0.903,0.8953,0.8953,0.8915,0.8875,0.8859,0.8814,0.8797,0.8745,0.8731,0.8735,0.8688,0.872,0.8682,0.866,0.866,0.8675,0.879,0.8825,0.8895,0.8745,0.8747,0.8748,0,0.9188,0.9158,0.9169,0.9106,0.9099,0.91,0.9063,0.9049,0.9004,0.8974,0.8949,0.8895,0.889,0.8838,0.8829,0.8805,0.8792,0.8768,0.8769,0.8765,0.871,0.879,0.8916,0.8927,0.8761,0.876,0.8759,0,0.9301,0.9263,0.9264,0.9245,0.9172,0.9174,0.9143,0.9096,0.9079,0.9048,0.9036,0.9004,0.8987,0.8964,0.8903,0.8871,0.8901,0.8845,0.8876,0.8878,0.8887,0.8888,0.9014,0.8878,0.8878,0.8878,0.8877,0,0.9396,0.9406,0.9313,0.9315,0.9323,0.9251,0.9261,0.9223,0.9181,0.9173,0.9104,0.9097,0.9017,0.9002,0.8954,0.8954,0.8947,0.8922,0.891,0.8929,0.8932,0.892,0.8914,0.888,0.888,0.8879,0.8879,0,0.9524,0.9463,0.9459,0.9389,0.9371,0.9381,0.932,0.9318,0.9272,0.9263,0.9256,0.9185,0.9163,0.91,0.9062,0.903,0.9043,0.9019,0.9059,0.9051,0.9086,0.9084,0.921,0.9222,0.9079,0.908,0.9081,0,0.959,0.9595,0.9525,0.9514,0.9487,0.947,0.9453,0.9382,0.9366,0.9314,0.9318,0.929,0.9265,0.9233,0.9178,0.9148,0.9123,0.9169,0.9118,0.9137,0.9124,0.9125,0.9125,0.9181,0.9182,0.9184,0.9185,0,0.9712,0.9681,0.9658,0.9625,0.9606,0.9576,0.9542,0.9537,0.9458,0.9444,0.942,0.94,0.936,0.9333,0.9295,0.9262,0.9211,0.9201,0.9207,0.9227,0.925,0.9239,0.909,0.9199,0.9198,0.9197,0.9196,0.9196,0.9811,0.9812,0.9762,0.9739,0.9706,0.9676,0.967,0.9623,0.9602,0.9564,0.9523,0.9504,0.9456,0.9399,0.937,0.9353,0.9326,0.9335,0.9337,0.934,0.9349,0.9252,0.9346,0.9345,0.9345,0.9345,0.9344,0,0.993,0.9894,0.9873,0.9827,0.9809,0.9761,0.972,0.9708,0.9692,0.9652,0.9628,0.96,0.9573,0.9515,0.9483,0.9481,0.9456,0.9475,0.9475,0.9468,0.9375,0.9374,0.9495,0.9495,0.9495,0.9495,0.9495,0.9495,0.999,0.9988,0.9951,0.9932,0.9896,0.9876,0.9857,0.9829,0.9796,0.9768,0.9745,0.9707,0.966,0.9623,0.9596,0.958,0.9571,0.9598,0.9574,0.9489,0.9475,0.9461,0.9459,0.9596,0.9597,0.9668,0.9668,0.9669]},{"header":{"parameterUnit":"m.s-1","parameterCategory":1,"la1":30.2991,"la2":30.254,"lo1":-89.0895,"lo2":-89.0444,"dy":0.0017,"dx":0.0017,"nx":28,"ny":28,"refTime":"2023-11-05T09:00:00:Z","depth":0,"parameterNumber":3,"parameterNumberName":"V-component_of_WINDS"},"data":[0,0,0,0,0,0,0,0,0,0,0,0,0,0,0,0,0,0,0,0,0,0,0,0,0,0,0,0,0,0,0,0,0,0,0,0,0,0,0,0,0,0,0,0,0,0,0,0,0,0,0,0,0,0,0,0,0,0,-0.8005,-0.8006,0,-0.8058,-0.8058,-0.8059,-0.8083,-0.8083,-0.8082,-0.8082,-0.8136,-0.8137,-0.8139,0,0,0,0,0,0,0,0,0,0,0,0,0,-0.7924,-0.7925,-0.8005,-0.8006,-0.8006,-0.8058,-0.8058,-0.8059,-0.8083,-0.8083,-0.8082,-0.8082,-0.8135,-0.8137,-0.8139,0,0,0,0,0,0,0,0,0,0,0,0,0,-0.7966,-0.7926,-0.8005,-0.8024,-0.8026,-0.8058,-0.8058,-0.8059,-0.8083,-0.8083,-0.8082,-0.8082,-0.8135,-0.8137,-0.8139,-0.8154,0,0,-0.8146,-0.8147,0,0,0,0,0,0,0,0,-0.7964,-0.7969,-0.8021,-0.8023,-0.8026,-0.8064,-0.8049,-0.8091,-0.8083,-0.8061,-0.8082,-0.8082,-0.8112,-0.8116,-0.8126,-0.8157,-0.8159,-0.8146,-0.8147,-0.8148,-0.8149,0,0,0,0,0,0,0,-0.7961,-0.7967,-0.8026,-0.8021,-0.8024,-0.803,-0.8036,-0.8057,-0.8086,-0.8063,-0.8065,-0.8071,-0.8113,-0.8124,-0.8127,-0.816,-0.8146,-0.8148,-0.8149,-0.815,-0.8208,-0.8208,0,0,0,0,0,0,-0.7955,-0.7964,-0.8024,-0.8027,-0.7994,-0.8032,-0.8038,-0.8051,-0.8086,-0.8091,-0.8071,-0.8072,-0.812,-0.8125,-0.8129,-0.815,-0.8148,-0.815,-0.8152,-0.8207,-0.8208,-0.8208,0,0,0,0,0,0,-0.7953,-0.796,-0.8022,-0.7996,-0.8005,-0.8033,-0.8048,-0.8052,-0.8063,-0.8092,-0.8097,-0.8077,-0.812,-0.8126,-0.8148,-0.8153,-0.8151,-0.8153,-0.8207,-0.8208,-0.8208,-0.8192,0,0,0,0,0,0,-0.7951,-0.7959,-0.7965,-0.7996,-0.8006,-0.804,-0.8048,-0.8054,-0.8067,-0.8069,-0.8099,-0.8104,-0.812,-0.8145,-0.8151,-0.8156,-0.8155,-0.8207,-0.8207,-0.8208,-0.8193,-0.8192,-0.8192,0,0,0,0,0,-0.7948,-0.7958,-0.7965,-0.7972,-0.8014,-0.804,-0.8046,-0.8065,-0.8067,-0.8074,-0.8093,-0.8103,-0.8151,-0.8147,-0.8154,-0.8159,-0.8207,-0.8207,-0.8208,-0.8193,-0.8192,-0.8192,0,0,0,0,0,0,-0.7926,-0.7963,-0.7971,-0.7992,-0.8013,-0.8044,-0.8053,-0.8064,-0.8084,-0.8085,-0.8108,-0.8114,-0.8135,-0.8149,-0.8144,-0.8177,-0.818,-0.8182,-0.8166,-0.8166,-0.8165,-0.8162,-0.8157,0,0,0,0,0,-0.7924,-0.7942,-0.7973,-0.7989,-0.7999,-0.8024,-0.8036,-0.8049,-0.8072,-0.8081,-0.8101,-0.8122,-0.8142,-0.8155,-0.8175,-0.8195,-0.8202,-0.8202,-0.8202,-0.8201,-0.8202,-0.8215,-0.8215,-0.8209,-0.8209,-0.8209,0,0,-0.792,-0.7942,-0.7952,-0.7985,-0.8003,-0.8021,-0.8031,-0.805,-0.8064,-0.8083,-0.8106,-0.8121,-0.8147,-0.8168,-0.8178,-0.8181,-0.8206,-0.8202,-0.8201,-0.8203,-0.8215,-0.8216,-0.8216,-0.821,-0.821,-0.821,0,0,-0.7921,-0.7939,-0.7955,-0.7973,-0.8,-0.8017,-0.802,-0.805,-0.8062,-0.8085,-0.81,-0.8117,-0.8151,-0.8168,-0.8182,-0.8191,-0.8201,-0.8197,-0.8194,-0.8206,-0.8207,-0.8207,-0.8211,-0.8212,-0.8198,-0.8198,-0.8198,0,-0.7912,-0.794,-0.7962,-0.798,-0.7994,-0.8013,-0.803,-0.8046,-0.8077,-0.8087,-0.8089,-0.8133,-0.8151,-0.8178,-0.818,-0.819,-0.8195,-0.8193,-0.8205,-0.8206,-0.8207,-0.821,-0.8212,-0.8197,-0.8197,-0.8198,-0.8198,0,-0.7928,-0.7948,-0.7957,-0.7988,-0.8004,-0.8021,-0.8045,-0.8058,-0.807,-0.8087,-0.811,-0.8133,-0.8158,-0.8166,-0.8177,-0.8194,-0.8194,-0.8201,-0.8204,-0.8206,-0.821,-0.8212,-0.8196,-0.8197,-0.8197,-0.8197,0,0,-0.7917,-0.796,-0.7964,-0.7978,-0.801,-0.8026,-0.8044,-0.8069,-0.808,-0.8102,-0.8118,-0.8147,-0.8153,-0.8168,-0.8182,-0.8193,-0.8199,-0.8198,-0.8199,-0.8197,-0.822,-0.8215,-0.8216,-0.8206,-0.8207,-0.8207,-0.8218,0,-0.7923,-0.7957,-0.7977,-0.8002,-0.8021,-0.804,-0.8056,-0.8077,-0.8093,-0.8111,-0.8129,-0.815,-0.8156,-0.8166,-0.8177,-0.8196,-0.8204,-0.8196,-0.8222,-0.8222,-0.8215,-0.8218,-0.8213,-0.8222,-0.8219,-0.822,-0.822,0,-0.7934,-0.7956,-0.7984,-0.8014,-0.8023,-0.8037,-0.8062,-0.8079,-0.8104,-0.8115,-0.8133,-0.8147,-0.8167,-0.817,-0.8198,-0.8192,-0.8204,-0.8215,-0.8216,-0.8219,-0.8221,-0.8222,-0.8225,-0.8226,-0.8222,-0.8222,-0.8222,0,-0.7924,-0.796,-0.7982,-0.7994,-0.803,-0.8039,-0.8055,-0.8079,-0.8094,-0.8116,-0.8125,-0.8149,-0.8163,-0.8181,-0.8202,-0.8201,-0.8228,-0.8232,-0.8238,-0.8238,-0.8243,-0.8242,-0.8249,-0.825,-0.825,-0.825,-0.825,0,-0.7928,-0.7945,-0.7978,-0.7991,-0.801,-0.8033,-0.8051,-0.8068,-0.809,-0.8107,-0.8124,-0.814,-0.8166,-0.8185,-0.8201,-0.8223,-0.8228,-0.8238,-0.8242,-0.8237,-0.8236,-0.8245,-0.8245,-0.8251,-0.8251,-0.8251,-0.8251,0,-0.792,-0.7943,-0.7967,-0.8,-0.8008,-0.8021,-0.8049,-0.8062,-0.808,-0.8101,-0.8108,-0.8135,-0.8158,-0.8181,-0.8212,-0.8223,-0.8244,-0.825,-0.8236,-0.8238,-0.8244,-0.8243,-0.8256,-0.8259,-0.8258,-0.8258,-0.8258,0,-0.7921,-0.7934,-0.7969,-0.7982,-0.7997,-0.8017,-0.8032,-0.8055,-0.807,-0.81,-0.811,-0.8135,-0.8156,-0.8192,-0.8215,-0.8239,-0.8245,-0.8248,-0.8249,-0.8243,-0.8246,-0.8245,-0.8246,-0.8247,-0.8247,-0.8247,-0.8247,0,-0.7922,-0.7933,-0.7954,-0.7979,-0.7997,-0.8018,-0.8039,-0.8048,-0.8076,-0.8092,-0.8116,-0.8132,-0.8165,-0.8189,-0.8216,-0.8232,-0.8244,-0.8247,-0.825,-0.8244,-0.8236,-0.8241,-0.8235,-0.8246,-0.8247,-0.8247,-0.8247,-0.8247,-0.7919,-0.7931,-0.7958,-0.7981,-0.8,-0.802,-0.8034,-0.8054,-0.8075,-0.8103,-0.8116,-0.814,-0.8166,-0.8203,-0.8219,-0.8239,-0.8242,-0.8246,-0.8247,-0.8247,-0.8246,-0.8233,-0.8244,-0.8244,-0.8244,-0.8244,-0.8244,0,-0.792,-0.7938,-0.796,-0.799,-0.8008,-0.8018,-0.8043,-0.8058,-0.8079,-0.8102,-0.8123,-0.8151,-0.8175,-0.82,-0.8225,-0.8237,-0.8243,-0.8242,-0.8242,-0.8246,-0.8242,-0.8237,-0.8237,-0.8237,-0.8237,-0.8237,-0.8237,-0.8237,-0.7923,-0.7946,-0.796,-0.7992,-0.8011,-0.8035,-0.8048,-0.8067,-0.8085,-0.8116,-0.8137,-0.8153,-0.8177,-0.8204,-0.8227,-0.8234,-0.8243,-0.8241,-0.8249,-0.8245,-0.8246,-0.8246,-0.8242,-0.8242,-0.8242,-0.8251,-0.8251,-0.8251]}]]